DW5977 Weather Reports


Display with metric or nautical units.
time (UTC)temp
F
wind
direction
speed
MPH
gust
MPH
rain 1hr
in
rain 24hr
in
rain mn
in
humidity
%
barometer
mb
20260504233524 66 208 2.0 8.0 0.00 0.00 0.00 45 1002.9
20260504233003 66 211 2.0 8.0 0.00 0.00 0.00 44 1002.9
20260504232503 67 211 3.0 8.0 0.00 0.00 0.00 45 1002.9
20260504232003 67 206 3.0 8.0 0.00 0.00 0.00 45 1002.9
20260504231503 67 213 3.0 7.0 0.00 0.00 0.00 44 1002.9
20260504231003 67 219 3.0 10.0 0.00 0.00 0.00 45 1003.0
20260504230503 67 186 6.0 13.0 0.00 0.00 0.00 45 1002.9
20260504230003 68 178 5.0 13.0 0.00 0.00 0.00 44 1003.0
20260504225503 68 209 3.0 13.0 0.00 0.00 0.00 44 1003.0
20260504225003 68 205 3.0 13.0 0.00 0.00 0.00 43 1002.9
20260504224503 68 208 3.0 9.0 0.00 0.00 0.00 43 1003.0
20260504224024 68 212 3.0 9.0 0.00 0.00 0.00 43 1003.0
20260504223524 69 206 3.0 9.0 0.00 0.00 0.00 42 1002.9
20260504223003 69 213 3.0 8.0 0.00 0.00 0.00 41 1002.9
20260504222503 69 233 3.0 10.0 0.00 0.00 0.00 40 1002.9
20260504222024 69 244 4.0 11.0 0.00 0.00 0.00 40 1002.8
20260504221524 69 244 5.0 14.0 0.00 0.00 0.00 39 1002.7
20260504221003 70 234 6.0 14.0 0.00 0.00 0.00 37 1002.8
20260504220503 70 229 6.0 15.0 0.00 0.00 0.00 36 1002.8
20260504220003 71 234 5.0 15.0 0.00 0.00 0.00 36 1002.9
20260504215503 71 229 5.0 11.0 0.00 0.00 0.00 37 1002.8
20260504215003 71 219 5.0 12.0 0.00 0.00 0.00 37 1002.8
20260504214503 71 218 5.0 14.0 0.00 0.00 0.00 37 1002.7
20260504214024 71 212 5.0 14.0 0.00 0.00 0.00 38 1002.7
20260504213503 71 214 5.0 14.0 0.00 0.00 0.00 37 1002.7
20260504213024 71 223 4.0 13.0 0.00 0.00 0.00 36 1002.7
20260504212503 71 217 5.0 13.0 0.00 0.00 0.00 37 1002.7
20260504212003 72 213 5.0 12.0 0.00 0.00 0.00 37 1002.7
20260504211503 71 238 4.0 10.0 0.00 0.00 0.00 39 1002.8
20260504211024 71 238 4.0 13.0 0.00 0.00 0.00 39 1002.8
20260504210503 71 222 4.0 13.0 0.00 0.00 0.00 37 1002.7
20260504210024 72 239 6.0 13.0 0.00 0.00 0.00 37 1002.8
20260504205503 72 249 6.0 13.0 0.00 0.00 0.00 35 1002.9
20260504205003 72 240 7.0 17.0 0.00 0.00 0.00 37 1002.7
20260504204503 72 231 6.0 17.0 0.00 0.00 0.00 38 1002.9
20260504204003 73 229 6.0 14.0 0.00 0.00 0.00 37 1002.8
20260504203524 73 231 6.0 14.0 0.00 0.00 0.00 37 1002.9
20260504203003 73 231 5.0 13.0 0.00 0.00 0.00 39 1002.9
20260504202503 73 230 5.0 13.0 0.00 0.00 0.00 37 1003.0
20260504202004 73 242 6.0 13.0 0.00 0.00 0.00 38 1003.1
20260504201503 72 240 7.0 16.0 0.00 0.00 0.00 38 1003.1
20260504201024 72 228 5.0 16.0 0.00 0.00 0.00 38 1003.2
20260504200503 72 214 3.0 12.0 0.00 0.00 0.00 42 1003.2
20260504200003 72 218 4.0 11.0 0.00 0.00 0.00 42 1003.3
20260504195503 71 223 4.0 11.0 0.00 0.00 0.00 42 1003.3
20260504195024 71 230 5.0 11.0 0.00 0.00 0.00 42 1003.3
20260504194524 71 234 6.0 13.0 0.00 0.00 0.00 43 1003.4
20260504194003 71 245 5.0 13.0 0.00 0.00 0.00 43 1003.6
20260504193503 71 237 5.0 12.0 0.00 0.00 0.00 43 1003.6
20260504193024 71 230 5.0 13.0 0.00 0.00 0.00 45 1003.7
20260504192503 70 237 6.0 13.0 0.00 0.00 0.00 44 1003.9
20260504192003 70 230 6.0 12.0 0.00 0.00 0.00 44 1003.9
20260504191524 70 231 6.0 13.0 0.00 0.00 0.00 43 1004.0
20260504191003 70 238 6.0 14.0 0.00 0.00 0.00 43 1004.1
20260504190504 70 235 6.0 14.0 0.00 0.00 0.00 44 1004.1
20260504190003 70 232 6.0 14.0 0.00 0.00 0.00 45 1004.1
20260504185503 69 234 7.0 14.0 0.00 0.00 0.00 46 1004.2
20260504185003 69 234 6.0 13.0 0.00 0.00 0.00 45 1004.2
20260504184503 70 224 5.0 13.0 0.00 0.00 0.00 45 1004.2
20260504184024 69 220 5.0 13.0 0.00 0.00 0.00 47 1004.4
20260504183503 70 236 5.0 11.0 0.00 0.00 0.00 45 1004.3
20260504183003 69 248 6.0 14.0 0.00 0.00 0.00 48 1004.4
20260504182503 68 241 6.0 14.0 0.00 0.00 0.00 47 1004.4
20260504182024 68 232 6.0 14.0 0.00 0.00 0.00 46 1004.6
20260504181503 68 235 6.0 14.0 0.00 0.00 0.00 47 1004.8
20260504181024 68 226 6.0 11.0 0.00 0.00 0.00 48 1004.9
20260504180503 67 225 6.0 13.0 0.00 0.00 0.00 48 1005.0
20260504180003 67 237 6.0 13.0 0.00 0.00 0.00 48 1005.1
20260504175503 67 250 6.0 13.0 0.00 0.00 0.00 48 1005.3
20260504175024 67 258 7.0 13.0 0.00 0.00 0.00 49 1005.2
20260504174524 67 244 7.0 13.0 0.00 0.00 0.00 47 1005.3
20260504174003 67 230 6.0 13.0 0.00 0.00 0.00 49 1005.3
20260504173524 67 244 5.0 13.0 0.00 0.00 0.00 49 1005.2
20260504173024 67 242 5.0 11.0 0.00 0.00 0.00 47 1005.2
20260504172524 67 241 5.0 17.0 0.00 0.00 0.00 51 1005.2
20260504172024 66 253 7.0 17.0 0.00 0.00 0.00 49 1005.2
20260504171503 66 249 7.0 15.0 0.00 0.00 0.00 51 1005.2
20260504171003 66 240 7.0 15.0 0.00 0.00 0.00 49 1005.3
20260504170503 66 245 7.0 13.0 0.00 0.00 0.00 50 1005.3
20260504151003 62 238 9.0 18.0 0.00 0.00 0.00 50 1006.5
20260504150524 62 236 8.0 18.0 0.00 0.00 0.00 50 1006.4
20260504141003 61 231 8.0 20.0 0.00 0.00 0.00 52 1006.3
20260504140524 61 228 7.0 15.0 0.00 0.00 0.00 52 1006.3
20260504130503 58 195 7.0 19.0 0.00 0.00 0.00 52 1006.5
20260504110503 53 190 4.0 9.0 0.00 0.00 0.00 57 1006.7
20260504100503 52 182 4.0 10.0 0.00 0.00 0.00 56 1006.4
20260504082003 51 193 4.0 10.0 0.00 0.00 0.00 56 1007.2
20260504081503 51 191 4.0 11.0 0.00 0.00 0.00 56 1007.2
20260504081024 51 208 5.0 11.0 0.00 0.00 0.00 56 1007.2
20260504080524 50 210 5.0 9.0 0.00 0.00 0.00 57 1007.3
20260504050503 53 218 5.0 12.0 0.00 0.00 0.00 52 1008.8
20260504050024 53 219 4.0 12.0 0.00 0.00 0.00 52 1008.9
20260504045524 53 219 4.0 10.0 0.00 0.00 0.00 52 1008.9
20260504045024 53 220 5.0 11.0 0.00 0.00 0.00 52 1008.9
20260504044504 53 218 5.0 12.0 0.00 0.00 0.00 52 1008.8
20260504044024 53 213 5.0 12.0 0.00 0.00 0.00 52 1008.7
20260504043503 53 208 4.0 10.0 0.00 0.00 0.00 52 1008.6
20260504043003 53 207 4.0 10.0 0.00 0.00 0.00 52 1008.7
20260504042503 53 206 4.0 10.0 0.00 0.00 0.00 51 1008.6
20260504042024 54 200 4.0 10.0 0.00 0.00 0.00 51 1008.5
20260504041503 54 200 5.0 12.0 0.00 0.00 0.00 50 1008.5
20260504041003 54 201 7.0 12.0 0.00 0.00 0.00 50 1008.5
20260504040503 54 199 6.0 11.0 0.00 0.00 0.00 50 1008.6
20260504040003 54 204 5.0 14.0 0.00 0.00 0.00 50 1008.6
20260504035524 54 222 4.0 14.0 0.00 0.00 0.00 51 1008.6
20260504035003 54 226 5.0 13.0 0.00 0.00 0.00 52 1008.6
20260504034503 54 204 5.0 14.0 0.00 0.00 0.00 52 1008.6
20260504034003 54 197 6.0 14.0 0.00 0.00 0.00 51 1008.6
20260504033503 54 210 6.0 16.0 0.00 0.00 0.00 52 1008.7
20260504033003 54 215 6.0 16.0 0.00 0.00 0.00 52 1008.8
20260504032503 54 222 6.0 15.0 0.00 0.00 0.00 51 1008.8
20260504032024 54 220 6.0 17.0 0.00 0.00 0.00 51 1008.8
20260504031503 55 220 7.0 17.0 0.00 0.00 0.00 50 1008.9
20260504031003 55 221 7.0 17.0 0.00 0.00 0.00 50 1008.9
20260504030503 55 227 6.0 17.0 0.00 0.00 0.00 50 1008.9
20260504030024 55 229 7.0 17.0 0.00 0.00 0.00 50 1008.9
20260504025524 54 229 8.0 20.0 0.00 0.00 0.00 51 1009.1
20260504025003 55 228 8.0 24.0 0.00 0.00 0.00 51 1009.0
20260504024524 54 222 7.0 24.0 0.00 0.00 0.00 52 1009.1
20260504024003 54 227 7.0 19.0 0.00 0.00 0.00 52 1009.0
20260504023503 54 228 8.0 19.0 0.00 0.00 0.00 51 1009.0
20260504023003 54 229 7.0 18.0 0.00 0.00 0.00 51 1009.1
20260504022503 54 235 7.0 18.0 0.00 0.00 0.00 52 1009.2
20260504022003 54 234 7.0 18.0 0.00 0.00 0.00 53 1009.0
20260504021503 54 233 7.0 18.0 0.00 0.00 0.00 53 1009.1
20260504021003 54 232 6.0 13.0 0.00 0.00 0.00 54 1009.1
20260504020503 54 234 6.0 17.0 0.00 0.00 0.00 54 1009.2
20260504020024 54 231 7.0 17.0 0.00 0.00 0.00 54 1009.2
20260504015503 53 226 6.0 15.0 0.00 0.00 0.00 55 1009.2
20260504015024 53 229 6.0 15.0 0.00 0.00 0.00 55 1009.1
20260504014503 53 234 6.0 17.0 0.00 0.00 0.00 55 1009.1
20260504014024 53 230 7.0 22.0 0.00 0.00 0.00 54 1009.2
20260504013524 54 228 8.0 22.0 0.00 0.00 0.00 53 1009.1
20260504013003 54 229 7.0 18.0 0.00 0.00 0.00 52 1009.1
20260504012503 54 231 7.0 18.0 0.00 0.00 0.00 52 1009.1
20260504012003 53 229 6.0 18.0 0.00 0.00 0.00 53 1009.2
20260504011524 53 229 6.0 18.0 0.00 0.00 0.00 55 1009.1
20260504011003 53 235 7.0 17.0 0.00 0.00 0.00 55 1009.2
20260504010503 52 235 8.0 15.0 0.00 0.00 0.00 55 1009.2
20260504010024 52 237 7.0 15.0 0.00 0.00 0.00 55 1009.2
20260504005503 52 235 6.0 15.0 0.00 0.00 0.00 57 1009.2
20260504005003 52 226 6.0 18.0 0.00 0.00 0.00 57 1009.1
20260504004503 52 232 6.0 18.0 0.00 0.00 0.00 57 1009.0
20260504004003 52 235 7.0 18.0 0.00 0.00 0.00 57 1009.0
20260504003503 52 226 7.0 18.0 0.00 0.00 0.00 58 1009.0
20260504003003 52 226 6.0 15.0 0.00 0.00 0.00 59 1009.0
20260504002503 52 237 6.0 13.0 0.00 0.00 0.00 60 1009.0
20260504002003 51 242 6.0 16.0 0.00 0.00 0.00 60 1009.1
20260504001503 51 231 5.0 16.0 0.00 0.00 0.00 62 1009.0
20260504001003 50 238 4.0 12.0 0.00 0.00 0.00 63 1009.1
20260504000524 50 248 4.0 12.0 0.00 0.00 0.00 63 1009.1
20260504000003 50 243 4.0 11.0 0.00 0.00 0.00 64 1009.2
20260503235503 50 244 4.0 11.0 0.00 0.00 0.00 64 1009.2
20260503235003 50 243 4.0 11.0 0.00 0.00 0.00 64 1009.2
20260503234503 50 243 4.0 11.0 0.00 0.00 0.00 63 1009.2
20260503234003 50 245 4.0 10.0 0.00 0.00 0.00 65 1009.3